Theta_e
358 364 368 367 366 365 365 364 362 362 361 360 361 362 363 362 362 363 363 363 363 363 363 361 359 358 356 355 355 358 358 358 357 356 356 355 354 353 354 353 356 349 352
360 364 367 366 366 365 364 364 362 361 361 360 362 362 363 363 362 363 363 363 363 365 362 360 358 357 355 354 355 356 356 357 357 357 356 355 353 353 352 353 354 353 355
358 363 366 365 365 364 364 362 361 361 361 360 361 362 363 362 362 363 363 364 365 363 360 358 357 356 355 354 354 354 355 355 356 358 356 354 353 356 355 355 355 357 358
358 360 364 365 364 364 363 361 361 361 361 360 361 362 363 362 362 363 363 364 364 362 360 357 356 355 355 354 353 353 354 355 358 358 353 352 354 360 358 356 355 358 359
355 359 364 365 364 363 362 361 361 361 360 360 362 362 362 362 361 361 362 363 363 360 359 357 356 355 354 353 353 353 354 357 357 355 351 351 349 357 358 352 352 354 354
353 360 364 364 363 363 362 361 360 361 361 361 362 362 362 362 361 360 360 360 360 359 357 356 355 355 355 354 354 354 355 355 355 346 346 350 341 353 355 356 355 356 358
357 361 363 364 363 363 362 361 361 360 360 361 362 362 361 361 362 361 360 359 359 359 355 355 355 355 354 353 353 354 353 354 348 344 342 339 345 354 358 358 358 358 359
357 359 361 364 363 361 361 361 360 360 360 360 361 361 361 361 361 361 361 361 360 359 357 355 355 354 352 351 351 352 352 354 347 343 339 343 352 358 360 360 360 359 359
357 358 360 360 361 362 360 360 359 359 359 360 360 360 360 361 360 360 360 359 359 358 356 355 353 353 351 350 352 353 353 354 346 344 340 348 358 359 358 357 357 356 355
355 356 357 358 359 358 357 360 359 359 359 359 359 359 359 360 359 359 357 358 358 356 355 353 352 351 350 350 352 352 354 354 345 340 348 353 357 358 356 354 353 352 351
352 353 356 356 356 356 355 357 358 360 360 359 359 359 356 353 354 356 355 357 356 355 354 353 351 350 350 351 352 353 355 346 338 338 349 357 358 354 352 350 348 347 346
345 349 353 354 354 354 355 354 353 354 355 354 355 353 349 348 346 349 353 356 355 355 354 352 352 352 351 344 341 351 347 343 339 348 351 357 354 351 348 346 343 342 341
345 346 349 351 352 353 353 352 352 352 351 350 351 348 344 346 346 346 347 349 346 352 346 349 347 347 344 341 338 336 340 339 348 348 352 353 351 346 344 342 339 337 336
344 344 345 347 347 349 352 350 350 348 346 344 347 345 342 341 343 344 343 342 342 343 342 341 340 340 339 336 336 339 342 346 347 347 347 350 347 344 340 337 336 334 334
342 343 342 343 340 346 345 343 345 342 342 340 344 342 343 344 342 344 342 339 340 340 338 339 336 337 338 341 344 347 347 346 346 346 343 346 344 343 338 335 333 332 332
344 341 342 341 341 342 340 338 339 338 337 339 344 341 343 346 342 340 341 336 337 338 336 338 337 342 340 346 347 345 343 343 345 343 339 338 342 341 339 333 331 332 331
345 345 340 340 343 338 337 337 336 336 340 340 343 340 343 347 343 342 340 336 336 338 340 342 343 343 346 343 340 341 343 344 344 340 337 334 336 339 336 335 337 333 329
346 345 345 350 342 338 340 339 339 337 340 340 343 340 344 347 345 342 339 337 337 338 339 338 342 342 341 337 336 338 337 341 341 341 337 334 329 328 334 339 335 331 327
346 343 342 344 348 345 341 343 343 342 344 342 345 342 346 347 346 341 339 339 335 340 347 345 342 342 336 335 336 333 336 336 338 341 337 328 327 322 320 337 336 331 327
345 343 342 341 346 347 347 348 349 348 346 347 346 344 347 344 347 342 339 341 345 346 344 342 335 335 333 331 334 333 333 334 339 336 333 325 320 319 320 321 320 323 336
343 340 338 339 338 345 346 347 346 345 346 348 347 347 349 346 345 338 348 345 346 344 341 341 336 331 328 328 325 324 327 328 327 332 327 320 318 319 319 322 322 323 323
337 337 337 337 337 343 347 347 347 345 349 348 349 349 349 346 342 348 344 341 341 336 332 331 331 328 329 324 322 323 320 324 318 322 315 318 316 319 321 322 320 322 322
335 332 332 337 342 346 349 349 348 347 345 346 347 346 346 345 349 346 343 340 335 332 330 330 330 329 326 327 322 323 316 314 312 315 315 314 314 318 319 321 321 323 319
342 337 336 334 334 346 349 348 346 343 341 345 345 344 344 346 344 341 338 335 334 332 331 332 330 326 326 322 320 320 317 313 307 305 313 314 316 317 317 319 318 320 319
345 345 344 334 333 342 341 347 345 343 343 344 345 340 339 339 340 339 337 334 331 330 327 325 324 323 319 316 314 312 311 312 311 310 303 308 312 314 315 318 320 319 320
348 346 346 345 343 346 344 346 343 343 343 343 339 338 337 337 336 336 335 334 328 326 324 322 322 321 318 316 316 312 309 308 306 308 307 307 307 310 315 321 321 319 320
Wind_Speed
8 12 18 20 22 21 19 19 18 18 18 18 18 16 15 16 18 18 17 16 14 14 13 13 13 12 11 11 12 11 10 9 8 8 9 9 7 6 6 7 8 7 5
18 13 18 20 22 21 20 20 18 18 18 18 17 16 15 16 17 17 15 14 13 14 14 13 12 11 10 11 10 9 9 7 6 9 9 5 2 1 2 4 5 4 3
15 15 16 22 21 22 20 19 20 18 18 18 17 15 15 15 15 16 15 13 14 14 14 12 11 10 10 9 8 8 7 6 7 8 6 3 4 5 3 3 2 1 2
19 13 14 22 22 22 22 20 20 19 18 18 18 14 14 15 14 14 14 13 13 14 13 12 10 9 8 8 7 6 5 7 7 7 3 5 8 7 5 3 1 2 4
17 13 14 21 23 22 21 20 21 19 19 18 18 15 14 14 14 13 13 12 12 13 12 11 9 8 7 7 6 4 4 6 8 7 5 5 4 7 6 6 5 6 6
16 13 18 21 22 24 22 20 21 21 19 18 18 16 14 14 14 13 12 12 12 12 11 9 9 7 6 6 4 3 2 5 9 5 7 5 6 7 6 6 9 10 8
15 13 14 18 22 24 23 21 21 21 20 19 18 17 15 14 13 13 12 12 11 11 11 9 7 6 6 5 4 1 4 6 5 4 2 5 4 8 8 9 10 9 9
17 15 13 17 20 22 23 23 21 21 21 20 19 17 16 14 13 12 11 11 11 10 8 8 7 5 6 5 5 6 7 7 5 5 4 4 4 9 11 10 10 11 10
18 15 12 12 14 21 21 23 22 21 22 20 19 18 16 15 14 12 12 11 10 9 8 7 6 5 6 7 10 10 8 9 2 2 3 3 4 11 13 12 14 14 13
14 16 12 11 13 11 14 21 21 21 21 20 19 18 17 15 14 12 11 10 10 9 9 8 7 7 9 11 9 8 8 10 3 2 4 3 6 12 15 14 15 15 14
13 14 14 12 12 11 12 15 19 21 21 20 18 19 14 7 8 11 10 12 10 9 8 8 8 10 10 9 10 9 11 1 5 5 3 9 10 14 16 16 17 15 14
18 15 15 14 13 13 11 13 12 12 10 10 10 12 8 8 7 9 9 12 11 10 9 10 10 10 7 4 4 8 5 2 2 4 3 10 12 15 15 17 15 14 14
22 16 16 15 14 14 10 7 6 5 6 7 10 9 8 8 6 5 4 4 4 8 4 6 5 4 6 5 5 5 4 4 4 5 5 12 12 15 17 16 14 13 13
22 23 20 16 12 11 8 8 8 7 6 6 8 11 5 3 6 7 5 6 5 5 6 5 3 5 7 7 8 4 4 6 5 4 6 9 13 16 16 13 12 12 12
22 21 21 21 9 11 11 6 9 7 7 7 8 10 6 5 6 6 6 6 6 5 5 5 5 6 7 6 2 5 7 8 7 4 4 10 14 13 12 12 11 11 10
12 13 16 17 16 13 10 8 7 7 7 9 7 8 7 5 6 6 5 6 5 5 6 6 5 5 3 5 5 6 6 6 7 6 4 5 12 10 10 9 8 9 9
17 14 8 6 9 14 10 8 5 6 7 8 8 7 7 6 5 5 5 5 5 5 6 5 3 4 5 5 5 5 5 5 3 6 5 3 5 8 8 4 8 12 7
20 22 17 3 7 11 11 9 7 8 7 7 7 6 7 7 7 4 4 2 3 2 2 4 4 4 5 4 3 4 4 3 3 3 4 5 4 4 4 3 14 9 4
19 27 26 19 3 3 8 6 6 7 6 6 6 6 7 7 6 5 3 3 2 3 5 5 6 6 6 4 4 3 3 3 4 2 5 6 6 4 0 8 10 6 3
22 26 24 15 16 4 6 6 4 6 7 9 8 7 7 6 6 5 1 1 4 6 5 6 9 8 5 3 3 4 3 3 2 4 5 5 5 4 2 6 3 3 5
19 20 21 21 18 16 9 10 5 9 8 9 10 9 8 7 7 5 5 4 6 8 6 5 5 7 6 3 2 4 5 6 5 5 5 3 4 2 2 5 2 2 2
20 21 20 23 22 22 19 12 5 10 4 6 9 10 8 7 7 7 8 6 8 8 9 8 5 3 3 5 3 2 4 4 5 4 4 3 4 1 4 4 3 4 3
22 22 21 24 20 17 17 8 6 4 2 5 9 7 4 8 10 12 10 9 9 7 6 5 5 6 3 3 3 3 2 3 2 2 5 5 6 3 1 3 3 3 1
25 23 23 24 23 16 15 11 14 11 8 7 9 6 7 12 13 12 11 10 8 5 6 5 4 4 3 3 2 3 4 3 1 5 4 6 6 6 4 3 2 3 1
24 26 25 25 23 23 18 17 15 13 8 8 9 12 12 10 13 12 10 9 7 5 5 6 4 4 4 4 3 2 3 3 3 3 2 5 5 4 4 3 2 3 4
21 22 23 29 30 28 28 31 17 16 16 13 12 11 9 8 9 10 9 8 6 6 6 5 7 8 6 6 4 4 3 2 1 3 2 3 3 5 4 4 5 3 3
Wind_Direction
121 140 139 132 127 125 122 121 118 114 110 108 107 104 99 100 100 100 100 102 105 104 100 94 89 86 83 78 74 71 69 71 75 72 73 66 63 63 76 79 73 79 71
137 146 142 135 129 129 128 126 122 120 117 114 111 110 102 102 100 101 101 104 108 103 99 97 91 87 81 76 72 68 64 52 41 38 37 31 35 84 94 85 73 63 60
135 141 145 138 133 132 130 129 126 124 120 118 113 114 108 105 105 106 106 108 109 104 100 99 99 95 87 82 72 60 51 27 21 21 2 310 249 210 204 144 111 50 3
135 142 150 141 137 135 134 133 129 128 125 123 119 119 111 111 111 109 110 112 111 109 107 105 104 102 97 89 79 63 31 14 2 342 307 287 269 173 206 144 62 344 318
132 140 152 143 140 137 134 138 133 130 129 126 124 125 117 115 114 111 112 115 117 117 115 116 114 111 105 95 84 66 25 351 330 331 299 269 115 166 179 75 57 39 10
134 139 146 147 143 138 138 142 136 134 132 131 130 129 125 121 117 119 121 121 122 123 123 124 124 125 117 107 99 63 344 328 314 346 319 128 120 144 103 83 52 32 12
128 139 140 153 144 141 144 143 141 137 136 135 135 134 131 126 124 128 131 128 128 127 132 134 138 140 126 126 125 172 272 290 296 23 345 92 96 117 90 65 51 32 10
130 137 145 151 147 145 147 144 144 139 137 138 139 139 136 133 132 132 133 131 131 133 141 143 154 152 145 157 186 222 244 266 301 40 89 92 158 95 76 65 59 44 26
132 135 141 146 151 148 151 145 145 144 141 143 144 141 140 142 140 141 141 140 140 145 155 159 167 167 178 196 216 227 246 266 299 342 270 105 79 79 70 63 57 49 36
133 136 140 145 148 151 150 145 145 145 143 146 145 141 144 147 145 146 147 148 151 164 170 174 180 184 210 222 238 255 264 275 54 243 101 105 92 79 72 63 58 49 38
138 142 143 151 152 151 151 148 144 147 145 147 146 145 144 149 153 160 164 160 166 177 181 185 194 208 221 245 256 261 268 354 285 157 115 134 97 82 76 67 58 49 39
147 157 152 160 161 152 155 149 143 150 150 152 150 153 157 164 173 174 170 164 173 182 190 201 207 218 228 249 261 251 253 135 200 70 110 125 108 92 85 74 66 54 40
158 157 162 162 163 154 148 151 141 142 155 151 154 160 181 175 176 150 154 162 175 190 202 209 215 220 221 218 251 231 245 175 102 115 151 113 101 89 76 71 61 52 44
163 165 160 156 161 154 151 154 150 153 164 162 168 176 183 168 167 160 167 172 184 194 204 199 197 213 235 229 220 182 177 109 121 110 122 117 109 88 83 78 63 48 47
166 162 161 147 151 140 152 162 151 159 165 169 175 181 177 189 179 172 177 175 198 188 202 205 200 216 227 231 34 118 84 89 136 131 119 137 103 101 97 74 64 57 48
174 152 147 162 140 147 155 151 158 159 166 164 175 185 175 188 187 166 179 194 202 209 198 220 193 213 131 110 101 89 82 72 104 134 148 129 114 120 94 82 68 71 56
117 116 136 169 145 141 149 155 154 178 169 161 175 171 175 189 181 165 169 184 187 185 188 166 125 92 92 68 65 67 73 56 39 110 130 122 130 125 110 177 46 96 71
132 120 100 309 143 153 159 166 172 184 173 171 168 166 183 174 170 184 169 204 223 300 169 77 102 91 86 80 75 35 48 2 349 116 110 148 157 92 203 156 92 92 91
138 139 158 167 146 325 145 173 175 186 171 176 171 170 180 164 172 178 163 233 188 62 69 79 56 73 65 48 21 351 355 336 307 130 121 109 107 105 76 106 97 126 100
147 157 160 159 126 68 301 172 181 193 172 164 173 177 169 158 173 162 119 180 110 89 74 85 87 61 63 32 354 324 325 330 316 91 71 106 90 100 121 87 92 34 39
153 151 163 147 148 138 250 200 186 189 189 165 170 170 170 156 168 122 91 74 83 80 71 79 110 97 45 340 35 352 11 42 35 79 47 65 28 123 95 67 111 68 13
159 162 155 162 174 165 197 201 180 188 195 154 162 165 157 142 140 106 94 77 76 80 63 57 69 85 84 21 84 68 19 350 28 57 33 42 0 210 77 101 100 100 38
160 162 162 163 178 184 194 185 178 185 118 129 149 145 132 128 107 107 95 87 83 86 89 87 93 89 102 39 24 131 98 199 312 331 4 3 12 9 290 151 124 130 50
163 173 171 174 173 189 196 192 189 195 170 148 137 105 94 101 98 96 98 94 101 112 104 90 81 98 103 82 24 35 69 136 61 334 347 352 348 355 336 278 161 187 63
170 170 172 181 165 187 186 212 189 187 136 125 111 107 99 93 101 101 103 101 96 98 98 106 92 78 81 100 98 70 45 55 59 122 306 331 334 325 300 260 230 119 67
170 170 167 173 181 188 188 201 184 157 144 130 128 119 114 106 104 106 100 97 102 102 97 103 92 80 72 68 69 56 95 120 341 42 21 322 293 309 344 26 14 47 52